Location: Grand Moustoir
(47.8355°N, 3.3120°W)
Time: 19:02:58
(UTC+00:00)

CZ-3 R/B - Pass Details

Date: 20 January 2020
Orbit: 346 x 10270 km, 28.4° (Epoch: 16 February)

Event Time Altitude Azimuth Distance (km) Brightness Sun altitude
Exits shadow 05:50:21 13° 247° (WSW) 6,593 5.2 -20.4°
Maximum altitude 06:01:52 25° 206° (SSW) 3,251 4.0 -18.5°
Drops below altitude 10° 06:07:47 10° 153° (SSE) 2,906 4.5 -17.5°
Sets 06:10:01 0° 137° (SE) 3,347 5.2 -17.1°
